| time (UTC) | temp C | wind direction | speed KPH | gust KPH | rain 1hr cm | rain 24hr cm | rain mn cm | humidity % | barometer mb |
| 20260904180006 | 35 | 195 | 4.8 | 8.0 | 0.00 | 0.00 | 0.00 | 16 | 1017.1 |
| 20260904175506 | 35 | 208 | 3.2 | 4.8 | 0.00 | 0.00 | 0.00 | 16 | 1017.1 |
| 20260904175006 | 36 | 202 | 1.6 | 3.2 | 0.00 | 0.00 | 0.00 | 16 | 1017.1 |
| 20260904174506 | 36 | 232 | 1.6 | 4.8 | 0.00 | 0.00 | 0.00 | 16 | 1017.1 |
| 20260904174007 | 36 | 233 | 1.6 | 4.8 | 0.00 | 0.00 | 0.00 | 16 | 1017.2 |
| 20260904173506 | 36 | 221 | 3.2 | 4.8 | 0.00 | 0.00 | 0.00 | 16 | 1017.2 |
| 20260904173011 | 36 | 200 | 1.6 | 4.8 | 0.00 | 0.00 | 0.00 | 16 | 1017.3 |
| 20260904172506 | 36 | 225 | 3.2 | 4.8 | 0.00 | 0.00 | 0.00 | 16 | 1017.2 |
| 20260904172006 | 36 | 220 | 3.2 | 4.8 | 0.00 | 0.00 | 0.00 | 16 | 1017.3 |
| 20260904171506 | 36 | 234 | 3.2 | 8.0 | 0.00 | 0.00 | 0.00 | 15 | 1017.2 |
| 20260904170506 | 36 | 209 | 0.0 | 4.8 | 0.00 | 0.00 | 0.00 | 15 | 1017.1 |
| 20260904170006 | 36 | 198 | 3.2 | 8.0 | 0.00 | 0.00 | 0.00 | 15 | 1017.1 |
| 20260904164506 | 36 | 200 | 4.8 | 11.3 | 0.00 | 0.00 | 0.00 | 15 | 1017.1 |
| 20260904164006 | 36 | 180 | 4.8 | 8.0 | 0.00 | 0.00 | 0.00 | 15 | 1017.1 |
| 20260904163505 | 36 | 216 | 4.8 | 9.7 | 0.00 | 0.00 | 0.00 | 15 | 1017.1 |
| 20260904163006 | 36 | 221 | 6.4 | 11.3 | 0.00 | 0.00 | 0.00 | 15 | 1017.1 |
| 20260904162505 | 36 | 228 | 8.0 | 11.3 | 0.00 | 0.00 | 0.00 | 15 | 1017.1 |
| 20260904162005 | 36 | 191 | 8.0 | 11.3 | 0.00 | 0.00 | 0.00 | 15 | 1017.2 |
| 20260904161506 | 36 | 193 | 8.0 | 14.5 | 0.00 | 0.00 | 0.00 | 15 | 1017.3 |
| 20260904161006 | 36 | 183 | 4.8 | 11.3 | 0.00 | 0.00 | 0.00 | 15 | 1017.2 |
| 20260904160506 | 37 | 192 | 4.8 | 11.3 | 0.00 | 0.00 | 0.00 | 15 | 1017.2 |
| 20260904160006 | 37 | 217 | 8.0 | 14.5 | 0.00 | 0.00 | 0.00 | 15 | 1017.3 |
| 20260904155505 | 37 | 220 | 3.2 | 11.3 | 0.00 | 0.00 | 0.00 | 14 | 1017.3 |
| 20260904155005 | 37 | 218 | 4.8 | 12.9 | 0.00 | 0.00 | 0.00 | 15 | 1017.4 |
| 20260904154506 | 37 | 172 | 8.0 | 12.9 | 0.00 | 0.00 | 0.00 | 15 | 1017.3 |
| 20260904154006 | 36 | 190 | 4.8 | 12.9 | 0.00 | 0.00 | 0.00 | 15 | 1017.3 |
| 20260904153006 | 36 | 193 | 6.4 | 11.3 | 0.00 | 0.00 | 0.00 | 15 | 1017.4 |
| 20260904152506 | 36 | 188 | 4.8 | 19.3 | 0.00 | 0.00 | 0.00 | 15 | 1017.4 |
| 20260904151506 | 37 | 232 | 8.0 | 12.9 | 0.00 | 0.00 | 0.00 | 14 | 1017.5 |
| 20260904151006 | 37 | 215 | 3.2 | 11.3 | 0.00 | 0.00 | 0.00 | 15 | 1017.5 |
| 20260904150506 | 37 | 224 | 8.0 | 16.1 | 0.00 | 0.00 | 0.00 | 14 | 1017.7 |
| 20260904150006 | 37 | 207 | 8.0 | 11.3 | 0.00 | 0.00 | 0.00 | 14 | 1017.6 |
| 20260904145506 | 36 | 200 | 6.4 | 16.1 | 0.00 | 0.00 | 0.00 | 14 | 1017.6 |
| 20260904145005 | 36 | 205 | 11.3 | 16.1 | 0.00 | 0.00 | 0.00 | 14 | 1017.7 |
| 20260904144505 | 36 | 217 | 9.7 | 20.9 | 0.00 | 0.00 | 0.00 | 14 | 1017.8 |
| 20260904144006 | 36 | 218 | 9.7 | 19.3 | 0.00 | 0.00 | 0.00 | 14 | 1017.7 |
| 20260904143506 | 36 | 209 | 8.0 | 19.3 | 0.00 | 0.00 | 0.00 | 14 | 1017.7 |
| 20260904143006 | 36 | 229 | 9.7 | 19.3 | 0.00 | 0.00 | 0.00 | 14 | 1017.7 |
| 20260904142505 | 37 | 212 | 4.8 | 19.3 | 0.00 | 0.00 | 0.00 | 13 | 1018.0 |
| 20260904142005 | 37 | 220 | 6.4 | 11.3 | 0.00 | 0.00 | 0.00 | 13 | 1018.1 |
| 20260904141506 | 37 | 185 | 4.8 | 14.5 | 0.00 | 0.00 | 0.00 | 14 | 1018.1 |
| 20260904141006 | 37 | 213 | 8.0 | 14.5 | 0.00 | 0.00 | 0.00 | 14 | 1018.1 |
| 20260904140506 | 37 | 206 | 6.4 | 11.3 | 0.00 | 0.00 | 0.00 | 14 | 1018.2 |
| 20260904140006 | 36 | 178 | 4.8 | 19.3 | 0.00 | 0.00 | 0.00 | 14 | 1018.4 |
| 20260904135505 | 36 | 279 | 0.0 | 4.8 | 0.00 | 0.00 | 0.00 | 14 | 1018.5 |
| 20260904135006 | 36 | 253 | 8.0 | 11.3 | 0.00 | 0.00 | 0.00 | 14 | 1018.6 |
| 20260904134005 | 36 | 242 | 9.7 | 19.3 | 0.00 | 0.00 | 0.00 | 15 | 1018.7 |
| 20260904133505 | 36 | 237 | 4.8 | 14.5 | 0.00 | 0.00 | 0.00 | 15 | 1018.7 |
| 20260904133006 | 36 | 200 | 6.4 | 12.9 | 0.00 | 0.00 | 0.00 | 15 | 1018.7 |
| 20260904132505 | 36 | 225 | 4.8 | 12.9 | 0.00 | 0.00 | 0.00 | 15 | 1018.7 |
| 20260904132005 | 36 | 220 | 6.4 | 14.5 | 0.00 | 0.00 | 0.00 | 15 | 1018.9 |
| 20260904131505 | 36 | 248 | 8.0 | 16.1 | 0.00 | 0.00 | 0.00 | 15 | 1019.0 |
| 20260904131005 | 36 | 197 | 9.7 | 19.3 | 0.00 | 0.00 | 0.00 | 15 | 1019.0 |
| 20260904130505 | 36 | 208 | 9.7 | 22.5 | 0.00 | 0.00 | 0.00 | 14 | 1019.1 |
| 20260904130006 | 35 | 236 | 4.8 | 12.9 | 0.00 | 0.00 | 0.00 | 15 | 1019.1 |
| 20260904125505 | 35 | 213 | 9.7 | 19.3 | 0.00 | 0.00 | 0.00 | 14 | 1019.3 |
| 20260904125005 | 35 | 245 | 8.0 | 14.5 | 0.00 | 0.00 | 0.00 | 14 | 1019.3 |
| 20260904124506 | 35 | 198 | 4.8 | 11.3 | 0.00 | 0.00 | 0.00 | 15 | 1019.4 |
| 20260904124006 | 35 | 209 | 3.2 | 12.9 | 0.00 | 0.00 | 0.00 | 15 | 1019.4 |
| 20260904123006 | 35 | 153 | 4.8 | 8.0 | 0.00 | 0.00 | 0.00 | 14 | 1019.4 |
| 20260904122506 | 35 | 242 | 1.6 | 9.7 | 0.00 | 0.00 | 0.00 | 14 | 1019.4 |
| 20260904121506 | 35 | 235 | 1.6 | 9.7 | 0.00 | 0.00 | 0.00 | 15 | 1019.6 |
| 20260904120505 | 34 | 230 | 6.4 | 11.3 | 0.00 | 0.00 | 0.00 | 16 | 1019.7 |
| 20260904115506 | 34 | 189 | 6.4 | 11.3 | 0.00 | 0.00 | 0.00 | 16 | 1019.7 |
| 20260904115005 | 33 | 186 | 4.8 | 12.9 | 0.00 | 0.00 | 0.00 | 16 | 1019.8 |
| 20260904114505 | 33 | 155 | 4.8 | 11.3 | 0.00 | 0.00 | 0.00 | 16 | 1019.9 |
| 20260904114005 | 33 | 193 | 4.8 | 9.7 | 0.00 | 0.00 | 0.00 | 16 | 1019.9 |
| 20260904113005 | 33 | 193 | 6.4 | 9.7 | 0.00 | 0.00 | 0.00 | 17 | 1020.1 |
| 20260904112506 | 33 | 220 | 6.4 | 9.7 | 0.00 | 0.00 | 0.00 | 16 | 1020.1 |
| 20260904112005 | 33 | 221 | 4.8 | 8.0 | 0.00 | 0.00 | 0.00 | 16 | 1020.2 |
| 20260904111506 | 32 | 187 | 6.4 | 11.3 | 0.00 | 0.00 | 0.00 | 17 | 1020.1 |
| 20260904111005 | 32 | 190 | 4.8 | 8.0 | 0.00 | 0.00 | 0.00 | 17 | 1020.1 |
| 20260904110506 | 32 | 150 | 4.8 | 12.9 | 0.00 | 0.00 | 0.00 | 17 | 1020.3 |
| 20260904110006 | 32 | 136 | 4.8 | 9.7 | 0.00 | 0.00 | 0.00 | 18 | 1020.4 |
| 20260904105505 | 32 | 154 | 3.2 | 9.7 | 0.00 | 0.00 | 0.00 | 18 | 1020.6 |
| 20260904105005 | 32 | 157 | 4.8 | 9.7 | 0.00 | 0.00 | 0.00 | 18 | 1020.7 |
| 20260904104005 | 31 | 162 | 3.2 | 4.8 | 0.00 | 0.00 | 0.00 | 18 | 1020.7 |
| 20260904103505 | 31 | 214 | 4.8 | 9.7 | 0.00 | 0.00 | 0.00 | 19 | 1020.8 |
| 20260904103006 | 31 | 196 | 3.2 | 4.8 | 0.00 | 0.00 | 0.00 | 19 | 1020.8 |
| 20260904102505 | 31 | 242 | 1.6 | 4.8 | 0.00 | 0.00 | 0.00 | 19 | 1020.8 |
| 20260904102006 | 31 | 179 | 1.6 | 4.8 | 0.00 | 0.00 | 0.00 | 19 | 1021.0 |
| 20260904101505 | 30 | 150 | 3.2 | 8.0 | 0.00 | 0.00 | 0.00 | 19 | 1020.9 |
| 20260904100506 | 30 | 161 | 4.8 | 9.7 | 0.00 | 0.00 | 0.00 | 19 | 1021.0 |
| 20260904100008 | 30 | 189 | 3.2 | 4.8 | 0.00 | 0.00 | 0.00 | 19 | 1021.0 |
| 20260904095507 | 30 | 230 | 3.2 | 11.3 | 0.00 | 0.00 | 0.00 | 20 | 1021.0 |
| 20260904095008 | 30 | 207 | 3.2 | 4.8 | 0.00 | 0.00 | 0.00 | 20 | 1021.0 |
| 20260904094507 | 30 | 210 | 1.6 | 4.8 | 0.00 | 0.00 | 0.00 | 20 | 1020.9 |
| 20260904094007 | 30 | 229 | 3.2 | 4.8 | 0.00 | 0.00 | 0.00 | 20 | 1020.9 |
| 20260904093508 | 29 | 68 | 0.0 | 4.8 | 0.00 | 0.00 | 0.00 | 20 | 1020.9 |
| 20260904093007 | 29 | 68 | 0.0 | 4.8 | 0.00 | 0.00 | 0.00 | 21 | 1020.9 |
| 20260904092507 | 28 | 164 | 1.6 | 3.2 | 0.00 | 0.00 | 0.00 | 22 | 1020.8 |
| 20260904092007 | 28 | 117 | 0.0 | 0.0 | 0.00 | 0.00 | 0.00 | 22 | 1020.8 |
| 20260904091508 | 28 | 117 | 0.0 | 0.0 | 0.00 | 0.00 | 0.00 | 23 | 1020.7 |
| 20260904091007 | 28 | 115 | 0.0 | 4.8 | 0.00 | 0.00 | 0.00 | 22 | 1020.8 |
| 20260904090007 | 27 | 284 | 1.6 | 3.2 | 0.00 | 0.00 | 0.00 | 22 | 1020.8 |
| 20260904085507 | 27 | 160 | 0.0 | 0.0 | 0.00 | 0.00 | 0.00 | 22 | 1020.8 |
| 20260904085007 | 27 | 160 | 0.0 | 1.6 | 0.00 | 0.00 | 0.00 | 24 | 1020.8 |
| 20260904084507 | 26 | 157 | 1.6 | 3.2 | 0.00 | 0.00 | 0.00 | 23 | 1020.8 |
| 20260904084007 | 26 | 159 | 1.6 | 3.2 | 0.00 | 0.00 | 0.00 | 23 | 1020.8 |
| 20260904083507 | 26 | 166 | 0.0 | 0.0 | 0.00 | 0.00 | 0.00 | 25 | 1020.8 |
| 20260904083007 | 26 | 184 | 0.0 | 1.6 | 0.00 | 0.00 | 0.00 | 26 | 1020.8 |
| 20260904082507 | 25 | 184 | 0.0 | 0.0 | 0.00 | 0.00 | 0.00 | 25 | 1020.8 |
| 20260904082007 | 25 | 184 | 0.0 | 0.0 | 0.00 | 0.00 | 0.00 | 25 | 1020.7 |
| 20260904081507 | 25 | 184 | 0.0 | 0.0 | 0.00 | 0.00 | 0.00 | 26 | 1020.7 |
| 20260904081007 | 24 | 184 | 0.0 | 0.0 | 0.00 | 0.00 | 0.00 | 26 | 1020.7 |
| 20260904080507 | 23 | 184 | 0.0 | 0.0 | 0.00 | 0.00 | 0.00 | 27 | 1020.7 |
| 20260904075507 | 22 | 184 | 0.0 | 0.0 | 0.00 | 0.00 | 0.00 | 28 | 1020.7 |
| 20260904075007 | 22 | 184 | 0.0 | 3.2 | 0.00 | 0.00 | 0.00 | 29 | 1020.7 |
| 20260904074507 | 21 | 184 | 1.6 | 4.8 | 0.00 | 0.00 | 0.00 | 29 | 1020.7 |
| 20260904073507 | 21 | 195 | 3.2 | 4.8 | 0.00 | 0.00 | 0.00 | 29 | 1020.7 |
| 20260904073007 | 21 | 171 | 1.6 | 4.8 | 0.00 | 0.00 | 0.00 | 30 | 1020.8 |
| 20260904072507 | 21 | 211 | 3.2 | 4.8 | 0.00 | 0.00 | 0.00 | 30 | 1020.8 |
| 20260904072007 | 21 | 185 | 1.6 | 4.8 | 0.00 | 0.00 | 0.00 | 30 | 1020.7 |
| 20260904071507 | 21 | 192 | 4.8 | 4.8 | 0.00 | 0.00 | 0.00 | 30 | 1020.7 |
| 20260904071008 | 20 | 183 | 3.2 | 4.8 | 0.00 | 0.00 | 0.00 | 30 | 1020.6 |
| 20260904070008 | 20 | 225 | 1.6 | 3.2 | 0.00 | 0.00 | 0.00 | 31 | 1020.6 |
| 20260904065007 | 20 | 204 | 0.0 | 0.0 | 0.00 | 0.00 | 0.00 | 33 | 1020.5 |
| 20260904064508 | 19 | 204 | 0.0 | 0.0 | 0.00 | 0.00 | 0.00 | 32 | 1020.4 |
| 20260904063507 | 20 | 204 | 0.0 | 0.0 | 0.00 | 0.00 | 0.00 | 32 | 1020.4 |
| 20260904063007 | 20 | 204 | 0.0 | 4.8 | 0.00 | 0.00 | 0.00 | 32 | 1020.4 |
| 20260904062507 | 20 | 208 | 3.2 | 4.8 | 0.00 | 0.00 | 0.00 | 32 | 1020.3 |
| 20260904062007 | 20 | 157 | 0.0 | 0.0 | 0.00 | 0.00 | 0.00 | 33 | 1020.2 |
| 20260904061507 | 20 | 5 | 0.0 | 0.0 | 0.00 | 0.00 | 0.00 | 33 | 1020.2 |
| 20260904061007 | 20 | 5 | 0.0 | 0.0 | 0.00 | 0.00 | 0.00 | 31 | 1020.1 |
| 20260904060007 | 20 | 5 | 0.0 | 0.0 | 0.00 | 0.00 | 0.00 | 29 | 1020.1 |
| 20260904055507 | 20 | 5 | 0.0 | 0.0 | 0.00 | 0.00 | 0.00 | 29 | 1020.1 |
| 20260904055007 | 20 | 5 | 0.0 | 0.0 | 0.00 | 0.00 | 0.00 | 28 | 1020.0 |
| 20260904054007 | 20 | 5 | 0.0 | 0.0 | 0.00 | 0.00 | 0.00 | 28 | 1019.9 |
| 20260904053507 | 20 | 5 | 0.0 | 0.0 | 0.00 | 0.00 | 0.00 | 30 | 1019.9 |
| 20260904053007 | 20 | 5 | 3.2 | 4.8 | 0.00 | 0.00 | 0.00 | 30 | 1019.8 |
| 20260904052006 | 20 | 44 | 0.0 | 4.8 | 0.00 | 0.00 | 0.00 | 30 | 1019.7 |
| 20260904051507 | 20 | 44 | 1.6 | 4.8 | 0.00 | 0.00 | 0.00 | 30 | 1019.6 |
| 20260904051007 | 20 | 30 | 0.0 | 1.6 | 0.00 | 0.00 | 0.00 | 30 | 1019.6 |
| 20260904045506 | 20 | 30 | 3.2 | 8.0 | 0.00 | 0.00 | 0.00 | 29 | 1019.5 |
| 20260904045007 | 20 | 25 | 4.8 | 4.8 | 0.00 | 0.00 | 0.00 | 29 | 1019.5 |
| 20260904044507 | 19 | 13 | 4.8 | 8.0 | 0.00 | 0.00 | 0.00 | 29 | 1019.6 |
| 20260904044007 | 20 | 68 | 0.0 | 0.0 | 0.00 | 0.00 | 0.00 | 29 | 1019.7 |
| 20260904043507 | 20 | 68 | 0.0 | 0.0 | 0.00 | 0.00 | 0.00 | 28 | 1019.7 |
| 20260904043007 | 20 | 68 | 0.0 | 0.0 | 0.00 | 0.00 | 0.00 | 28 | 1019.8 |
| 20260904042007 | 20 | 68 | 1.6 | 3.2 | 0.00 | 0.00 | 0.00 | 29 | 1019.8 |
| 20260904041007 | 20 | 23 | 3.2 | 8.0 | 0.00 | 0.00 | 0.00 | 29 | 1019.7 |
| 20260904040507 | 20 | 27 | 4.8 | 8.0 | 0.00 | 0.00 | 0.00 | 29 | 1019.7 |
| 20260904040007 | 20 | 22 | 0.0 | 4.8 | 0.00 | 0.00 | 0.00 | 29 | 1019.7 |
| 20260904035506 | 20 | 26 | 1.6 | 4.8 | 0.00 | 0.00 | 0.00 | 29 | 1019.7 |
| 20260904035007 | 20 | 34 | 4.8 | 8.0 | 0.00 | 0.00 | 0.00 | 28 | 1019.7 |
| 20260904034007 | 21 | 27 | 4.8 | 8.0 | 0.00 | 0.00 | 0.00 | 27 | 1019.7 |
| 20260904032507 | 22 | 8 | 4.8 | 8.0 | 0.00 | 0.00 | 0.00 | 24 | 1019.8 |
| 20260904031507 | 22 | 355 | 4.8 | 4.8 | 0.00 | 0.00 | 0.00 | 25 | 1019.8 |
| 20260904030007 | 22 | 16 | 4.8 | 4.8 | 0.00 | 0.00 | 0.00 | 25 | 1019.8 |
| 20260904025506 | 22 | 16 | 0.0 | 0.0 | 0.00 | 0.00 | 0.00 | 25 | 1019.8 |
| 20260904025007 | 22 | 16 | 0.0 | 0.0 | 0.00 | 0.00 | 0.00 | 25 | 1019.9 |
| 20260904023507 | 21 | 49 | 0.0 | 0.0 | 0.00 | 0.00 | 0.00 | 27 | 1019.8 |
| 20260904023007 | 22 | 49 | 0.0 | 0.0 | 0.00 | 0.00 | 0.00 | 27 | 1019.8 |
| 20260904022006 | 22 | 49 | 0.0 | 0.0 | 0.00 | 0.00 | 0.00 | 27 | 1019.7 |
| 20260904021006 | 23 | 49 | 0.0 | 0.0 | 0.00 | 0.00 | 0.00 | 27 | 1019.7 |
| 20260904020507 | 23 | 49 | 0.0 | 0.0 | 0.00 | 0.00 | 0.00 | 26 | 1019.8 |
| 20260904020008 | 23 | 49 | 0.0 | 0.0 | 0.00 | 0.00 | 0.00 | 25 | 1019.8 |
| 20260904015506 | 23 | 49 | 0.0 | 0.0 | 0.00 | 0.00 | 0.00 | 25 | 1019.9 |
| 20260904015006 | 24 | 49 | 0.0 | 0.0 | 0.00 | 0.00 | 0.00 | 23 | 1019.9 |
| 20260904014507 | 24 | 49 | 0.0 | 0.0 | 0.00 | 0.00 | 0.00 | 24 | 1019.9 |
| 20260904014007 | 24 | 49 | 0.0 | 0.0 | 0.00 | 0.00 | 0.00 | 23 | 1020.0 |
| 20260904013507 | 25 | 49 | 0.0 | 4.8 | 0.00 | 0.00 | 0.00 | 23 | 1020.1 |
| 20260904013007 | 24 | 46 | 4.8 | 9.7 | 0.00 | 0.00 | 0.00 | 23 | 1020.0 |
| 20260904012506 | 23 | 31 | 4.8 | 8.0 | 0.00 | 0.00 | 0.00 | 24 | 1020.0 |
| 20260904011506 | 23 | 33 | 3.2 | 4.8 | 0.00 | 0.00 | 0.00 | 25 | 1020.1 |
| 20260904011006 | 23 | 31 | 0.0 | 3.2 | 0.00 | 0.00 | 0.00 | 25 | 1020.2 |
| 20260904005006 | 23 | 33 | 3.2 | 8.0 | 0.00 | 0.00 | 0.00 | 24 | 1020.3 |
| 20260904004507 | 24 | 19 | 4.8 | 8.0 | 0.00 | 0.00 | 0.00 | 23 | 1020.2 |
| 20260904003518 | 23 | 17 | 3.2 | 4.8 | 0.00 | 0.00 | 0.00 | 24 | 1020.2 |
| 20260904003018 | 23 | 17 | 3.2 | 4.8 | 0.00 | 0.00 | 0.00 | 24 | 1020.3 |
| 20260904002017 | 24 | 27 | 3.2 | 4.8 | 0.00 | 0.00 | 0.00 | 24 | 1020.3 |
| 20260904001506 | 24 | 5 | 3.2 | 8.0 | 0.00 | 0.00 | 0.00 | 23 | 1020.3 |
| 20260904001018 | 24 | 352 | 4.8 | 8.0 | 0.00 | 0.00 | 0.00 | 23 | 1020.3 |
| 20260904000518 | 24 | 5 | 3.2 | 4.8 | 0.00 | 0.00 | 0.00 | 23 | 1020.3 |
| 20260904000018 | 24 | 5 | 4.8 | 9.7 | 0.00 | 0.00 | 0.00 | 23 | 1020.3 |
| 20260903235510 | 24 | 0 | 8.0 | 9.7 | 0.00 | 0.00 | 0.00 | 23 | 1020.3 |
| 20260903234017 | 25 | 12 | 3.2 | 8.0 | 0.00 | 0.00 | 0.00 | 24 | 1020.3 |
| 20260903233518 | 25 | 11 | 4.8 | 12.9 | 0.00 | 0.00 | 0.00 | 23 | 1020.2 |
| 20260903233018 | 25 | 12 | 8.0 | 11.3 | 0.00 | 0.00 | 0.00 | 24 | 1020.2 |
| 20260903232519 | 25 | 13 | 6.4 | 11.3 | 0.00 | 0.00 | 0.00 | 24 | 1020.3 |
| 20260903232018 | 24 | 17 | 6.4 | 11.3 | 0.00 | 0.00 | 0.00 | 24 | 1020.3 |
| 20260903231519 | 24 | 18 | 6.4 | 11.3 | 0.00 | 0.00 | 0.00 | 25 | 1020.3 |
| 20260903231017 | 23 | 27 | 6.4 | 9.7 | 0.00 | 0.00 | 0.00 | 25 | 1020.2 |
| 20260903230518 | 23 | 9 | 4.8 | 8.0 | 0.00 | 0.00 | 0.00 | 26 | 1020.2 |
| 20260903230018 | 23 | 13 | 4.8 | 8.0 | 0.00 | 0.00 | 0.00 | 25 | 1020.1 |
| 20260903225507 | 24 | 14 | 4.8 | 8.0 | 0.00 | 0.00 | 0.00 | 25 | 1020.1 |
| 20260903225017 | 25 | 14 | 3.2 | 8.0 | 0.00 | 0.00 | 0.00 | 24 | 1020.1 |
| 20260903224519 | 25 | 35 | 3.2 | 4.8 | 0.00 | 0.00 | 0.00 | 24 | 1020.0 |
| 20260903224018 | 25 | 35 | 0.0 | 0.0 | 0.00 | 0.00 | 0.00 | 23 | 1020.0 |
| 20260903223518 | 25 | 35 | 0.0 | 0.0 | 0.00 | 0.00 | 0.00 | 23 | 1020.1 |
| 20260903223018 | 25 | 35 | 0.0 | 0.0 | 0.00 | 0.00 | 0.00 | 24 | 1020.0 |
| 20260903222518 | 25 | 23 | 0.0 | 0.0 | 0.00 | 0.00 | 0.00 | 24 | 1020.1 |
| 20260903221518 | 26 | 23 | 1.6 | 4.8 | 0.00 | 0.00 | 0.00 | 23 | 1019.9 |
| 20260903221018 | 26 | 23 | 4.8 | 4.8 | 0.00 | 0.00 | 0.00 | 23 | 1019.8 |
| 20260903220519 | 25 | 30 | 4.8 | 8.0 | 0.00 | 0.00 | 0.00 | 23 | 1019.8 |
| 20260903220008 | 25 | 7 | 3.2 | 4.8 | 0.00 | 0.00 | 0.00 | 24 | 1019.8 |
| 20260903215518 | 25 | 7 | 4.8 | 8.0 | 0.00 | 0.00 | 0.00 | 23 | 1019.7 |
| 20260903215018 | 25 | 0 | 8.0 | 8.0 | 0.00 | 0.00 | 0.00 | 23 | 1019.7 |
| 20260903214518 | 25 | 4 | 8.0 | 9.7 | 0.00 | 0.00 | 0.00 | 24 | 1019.6 |
| 20260903214007 | 25 | 348 | 4.8 | 8.0 | 0.00 | 0.00 | 0.00 | 24 | 1019.6 |
| 20260903213518 | 25 | 357 | 4.8 | 8.0 | 0.00 | 0.00 | 0.00 | 23 | 1019.7 |
| 20260903213018 | 26 | 0 | 4.8 | 4.8 | 0.00 | 0.00 | 0.00 | 23 | 1019.7 |
| 20260903212018 | 26 | 4 | 4.8 | 8.0 | 0.00 | 0.00 | 0.00 | 23 | 1019.7 |
| 20260903211518 | 26 | 359 | 8.0 | 8.0 | 0.00 | 0.00 | 0.00 | 23 | 1019.8 |
| 20260903210518 | 26 | 355 | 4.8 | 4.8 | 0.00 | 0.00 | 0.00 | 22 | 1019.7 |
| 20260903210007 | 27 | 13 | 3.2 | 4.8 | 0.00 | 0.00 | 0.00 | 23 | 1019.7 |
| 20260903205518 | 27 | 13 | 4.8 | 8.0 | 0.00 | 0.00 | 0.00 | 22 | 1019.6 |
| 20260903205018 | 27 | 355 | 4.8 | 4.8 | 0.00 | 0.00 | 0.00 | 22 | 1019.6 |
| 20260903204507 | 27 | 9 | 4.8 | 8.0 | 0.00 | 0.00 | 0.00 | 22 | 1019.6 |
| 20260903204018 | 27 | 356 | 4.8 | 9.7 | 0.00 | 0.00 | 0.00 | 22 | 1019.6 |
| 20260903203508 | 27 | 355 | 3.2 | 8.0 | 0.00 | 0.00 | 0.00 | 21 | 1019.6 |
| 20260903202518 | 28 | 17 | 4.8 | 8.0 | 0.00 | 0.00 | 0.00 | 21 | 1019.4 |
| 20260903202018 | 28 | 9 | 4.8 | 8.0 | 0.00 | 0.00 | 0.00 | 20 | 1019.3 |
| 20260903201518 | 29 | 19 | 4.8 | 8.0 | 0.00 | 0.00 | 0.00 | 21 | 1019.3 |
| 20260903201018 | 29 | 31 | 4.8 | 8.0 | 0.00 | 0.00 | 0.00 | 21 | 1019.3 |
| 20260903200507 | 29 | 31 | 4.8 | 8.0 | 0.00 | 0.00 | 0.00 | 21 | 1019.2 |
| 20260903195518 | 30 | 356 | 4.8 | 8.0 | 0.00 | 0.00 | 0.00 | 21 | 1018.9 |
| 20260903195018 | 30 | 17 | 3.2 | 8.0 | 0.00 | 0.00 | 0.00 | 21 | 1018.8 |
| 20260903194518 | 30 | 20 | 8.0 | 9.7 | 0.00 | 0.00 | 0.00 | 20 | 1018.8 |
| 20260903194019 | 30 | 17 | 3.2 | 4.8 | 0.00 | 0.00 | 0.00 | 20 | 1018.7 |
| 20260903193507 | 30 | 307 | 3.2 | 4.8 | 0.00 | 0.00 | 0.00 | 21 | 1018.8 |
| 20260903192518 | 30 | 0 | 6.4 | 14.5 | 0.00 | 0.00 | 0.00 | 21 | 1018.8 |
| 20260903192007 | 30 | 1 | 8.0 | 14.5 | 0.00 | 0.00 | 0.00 | 21 | 1018.6 |
| 20260903191516 | 31 | 37 | 3.2 | 4.8 | 0.00 | 0.00 | 0.00 | 20 | 1018.6 |
| 20260903191018 | 32 | 215 | 0.0 | 0.0 | 0.00 | 0.00 | 0.00 | 19 | 1018.4 |
| 20260903190518 | 32 | 215 | 0.0 | 0.0 | 0.00 | 0.00 | 0.00 | 18 | 1018.4 |
| 20260903185518 | 33 | 215 | 1.6 | 4.8 | 0.00 | 0.00 | 0.00 | 18 | 1018.4 |
| 20260903185018 | 33 | 215 | 3.2 | 4.8 | 0.00 | 0.00 | 0.00 | 18 | 1018.4 |
| 20260903184518 | 34 | 190 | 1.6 | 4.8 | 0.00 | 0.00 | 0.00 | 17 | 1018.4 |
| 20260903182506 | 35 | 206 | 4.8 | 8.0 | 0.00 | 0.00 | 0.00 | 16 | 1018.3 |
| 20260903182007 | 35 | 195 | 4.8 | 9.7 | 0.00 | 0.00 | 0.00 | 16 | 1018.3 |
| 20260903181519 | 35 | 191 | 4.8 | 9.7 | 0.00 | 0.00 | 0.00 | 16 | 1018.4 |
| 20260903181021 | 35 | 199 | 9.7 | 12.9 | 0.00 | 0.00 | 0.00 | 16 | 1018.3 |
| 20260903180519 | 35 | 193 | 6.4 | 11.3 | 0.00 | 0.00 | 0.00 | 16 | 1018.3 |